Location: Asheville, NC
(35.6000°N, 82.5500°W)
Time: 04:40:14
(UTC-05:00)

CUBEBUG 2 - Pass Details

Date: 11 January 2018
Orbit: 587 x 699 km, 97.6° (Epoch: 17 January)

Event Time Altitude Azimuth Distance (km) Brightness Sun altitude
Rises 20:08:00 0° 208° (SSW) 2,817 ? -30.2°
Reaches altitude 10° 20:10:58 10° 232° (SW) 1,935 ? -30.8°
Maximum altitude 20:13:23 15° 268° (W) 1,651 ? -31.3°
Drops below altitude 10° 20:15:51 10° 303° (WNW) 1,975 ? -31.8°
Sets 20:18:57 0° 327° (NNW) 2,910 ? -32.4°
